#timestamp,LO_Frequency,Hit,StdDev 
1630029615.4,286046999.5,N
1630029635.3,286046998.9,N
1630029655.1,286046998.5,N
1630029675.8,286046998.2,N
1630029695.7,286046998.9,N
1630029715.5,286046999.3,N
1630029735.4,286046999.2,N
1630029755.2,286046997.4,N
1630029775.0,286046995.4,Y
1630029775.9,286046995.4,P
1630029795.8,286046996.8,N
1630029815.6,286046997.2,N
1630029835.4,286046999.0,N
1630029855.3,286046998.3,N
1630029875.1,286047000.9,N
1630029895.9,286046998.7,N
1630029915.7,286046998.3,N
1630029935.5,286046998.3,N
1630029955.4,286046998.9,N
1630029975.2,286046999.1,N
1630029995.0,286046998.4,N
1630029996.0,286046998.4,N
1630030015.8,286047001.1,N
1630030035.6,286047000.7,N
1630030055.5,286046999.8,N
1630030075.3,286047000.6,N
1630030095.1,286047000.6,N
1630030115.9,286047000.9,N
1630030135.7,286047001.2,N
1630030155.5,286046998.4,N
1630030175.4,286046999.2,N
1630030195.2,286046998.3,N
1630030215.1,286046999.1,N
1630030216.0,286046999.1,N
1630030235.8,286047001.1,N
1630030255.6,286047000.9,N
1630030275.5,286047000.8,N
1630030295.3,286047000.8,N
1630030315.1,286047000.7,N
1630030335.9,286047000.0,N
1630030355.7,286047000.4,N
1630030375.6,286047001.0,N
1630030395.4,286047001.1,N
1630030415.2,286046998.3,N
1630030435.1,286047000.8,N
1630030436.0,286047000.8,N
1630030455.8,286047000.5,N
1630030475.6,286047000.7,N
1630030495.5,286046999.1,N
1630030515.3,286046998.2,N
1630030535.2,286047000.8,N
1630030555.9,286047000.3,N
1630030575.7,286046999.9,N
1630030595.6,286047002.8,N
1630030615.4,286047001.6,N
1630030635.2,286047001.9,N
1630030655.1,286047001.9,N
1630030656.0,286047001.9,N
1630030675.8,286047002.5,N
1630030695.7,286047001.4,N
1630030715.5,286047004.3,Y
1630030735.3,286047001.6,P
1630030755.2,286047000.1,N
1630030775.0,286047002.1,P
1630030775.9,286047002.1,N
1630030795.8,286047002.6,Y
1630030815.6,286046998.1,P
1630030835.4,286046998.9,N
1630030855.3,286046998.2,N
1630030875.1,286047001.1,N
1630030895.8,286047001.1,N
1630030915.7,286046998.8,N
1630030935.5,286046998.6,N
1630030955.4,286047001.1,N
1630030975.2,286047000.5,N
1630030995.0,286047000.6,N
1630030995.9,286047000.6,N
1630031015.8,286047000.9,N
1630031035.6,286046998.6,N
1630031055.4,286046999.3,N
1630031075.3,286046999.5,N
1630031095.1,286046999.5,N
1630031115.9,286046996.6,Y
1630031135.7,286046998.2,P
1630031155.5,286046999.2,N
1630031175.4,286046997.5,P
1630031195.2,286046997.2,Y
1630031215.0,286046997.7,P
1630031215.9,286046997.7,P
1630031235.8,286046999.2,N
1630031255.6,286046999.3,N
1630031275.5,286047001.2,N
1630031295.3,286046999.3,N
1630031315.1,286046998.9,N
1630031335.9,286046998.7,N
1630031355.7,286046999.5,N
1630031375.5,286046996.9,Y
1630031395.4,286046998.6,P
1630031415.2,286046998.3,P
1630031435.1,286046998.2,P
1630031436.0,286046998.2,Y
1630031455.8,286046999.7,P
1630031475.6,286046999.7,N
1630031495.5,286047000.2,N
1630031515.3,286047002.4,Y
1630031535.2,286047002.2,P
1630031555.9,286046999.8,N
1630031575.7,286047000.5,N
1630031595.6,286046998.4,N
1630031615.4,286046998.6,N
1630031635.2,286047000.0,N
1630031655.1,286047001.0,N
1630031656.0,286047001.0,N
1630031675.8,286046999.9,N
1630031695.7,286047000.6,N
1630031715.5,286046998.5,N
1630031735.3,286046999.4,N
1630031755.2,286046996.9,N
1630031775.0,286046997.3,N
1630031775.9,286046997.3,N
1630031795.7,286046997.5,N
1630031815.6,286046995.7,N
1630031835.4,286046995.3,N
1630031855.3,286046995.1,N
1630031875.1,286046996.4,N
1630031876.0,286046996.4,N
1630031895.8,286046994.0,Y
1630031915.7,286046995.5,P
1630031935.5,286046995.7,N
1630031955.3,286046997.4,N
1630031975.2,286046996.9,N
1630031995.0,286046995.3,Y
1630031995.9,286046995.3,P
1630032015.8,286047000.6,N
1630032035.6,286047001.2,N
1630032055.4,286047001.2,N
1630032075.3,286046999.1,N
1630032095.1,286046999.1,N
1630032115.9,286046996.7,N
1630032135.7,286046999.0,N
1630032155.5,286046998.2,N
1630032175.4,286047002.4,N
1630032195.2,286047003.9,N
1630032215.0,286047003.2,N
1630032215.9,286047003.2,N
1630032235.8,286047004.4,N
1630032255.6,286047004.4,N
1630032275.5,286047004.2,N
1630032295.3,286047001.4,N
1630032315.1,286047001.3,N
1630032335.9,286047001.4,N
1630032355.7,286047003.9,N
1630032375.5,286047004.3,N
1630032395.4,286047003.5,N
1630032415.2,286047001.5,N
1630032435.1,286047011.9,Y
1630032436.0,286047004.2,P
1630032455.8,286047004.0,N
1630032475.6,286047001.3,N
1630032495.5,286047002.6,N
1630032515.3,286047001.6,N
1630032535.1,286047001.8,N
1630032555.9,286047002.1,N
1630032575.7,286047001.6,N
1630032595.6,286047002.6,N
1630032615.4,286046999.7,N
1630032635.2,286047002.5,N
1630032655.1,286047002.8,N
1630032656.0,286047002.8,N
1630032675.8,286047000.1,N
1630032695.6,286046999.9,N
1630032715.5,286047001.9,N
1630032735.3,286047004.2,Y
1630032755.2,286047002.6,P
1630032775.9,286047002.0,P
1630032795.7,286047001.7,P
1630032815.6,286047002.6,Y
1630032835.4,286047001.0,P
1630032855.2,286046998.1,P
1630032875.1,286046998.8,N
1630032876.0,286046998.8,N
1630032895.8,286047001.1,N
1630032915.7,286047001.1,N
1630032935.5,286046998.7,N
1630032955.3,286046998.4,N
1630032975.2,286046998.4,N
1630032995.0,286047000.5,N
1630032995.9,286047000.5,N
1630033015.8,286046999.7,N
1630033035.6,286047002.2,N
1630033055.4,286047004.0,N
1630033075.3,286047004.4,N
1630033095.1,286047001.3,N
1630033115.8,286047002.5,N
1630033135.7,286047004.1,N
1630033155.5,286047005.9,N
1630033175.4,286047005.7,N
1630033195.2,286047005.7,N
